Hourly Data Report for October 07, 2016

All times are specified in Local Standard Time (LST). Add 1 hour to adjust for Daylight Saving Time where and when it is observed.

PANGNIRTUNG
NUNAVUT

66°08'36.300" N
65°42'40.500" W
22.60 m
2403049
71826
WXP

Download Data

Hourly Data (October 2016)
Hourly Data Report for October 7, 2016
Temp Definition
°C
Dew Point Temp Definition
°C
Rel Hum Definition
%
Wind Dir Definition
10's deg

Wind Spd Definition
km/h
Visibility Definition
km
Stn Press Definition
kPa
Hmdx Definition


Wind Chill Definition


Weather Definition


TIME
00:00 -1.1 -3.6 83 24 5   100.73   -3 LegendNANA
01:00 -1.1 -3.7 82 25 9   100.80   -4 LegendNANA
02:00 -1.5 -3.9 84 25 8   100.86   -5 LegendNANA
03:00 -1.8 -4.2 84 27 9   100.95   -5 LegendNANA
04:00 -2.0 -4.7 82 33 6   101.02   -4 LegendNANA
05:00 -2.1 -5.1 80 15 1   101.06   -2 LegendNANA
06:00 -2.3 -4.4 85 27 10   101.14   -6 LegendNANA
07:00 -2.2 -4.8 82 23 9   101.21   -6 LegendNANA
08:00 -1.5 -4.9 77 24 5   101.28   -3 LegendNANA
09:00 -1.5 -5.0 77 18 7   101.32   -4 LegendNANA
10:00 -0.7 -5.3 71 29 2   101.31   -1 LegendNANA
11:00 -1.4 -3.8 84 24 14   101.34   -6 LegendNANA
12:00 -1.5 -4.2 81 24 18   101.35   -7 LegendNANA
13:00 -1.1 -4.2 79 24 17   101.37   -6 LegendNANA
14:00 0.0 -5.4 67 28 15   101.41   -4 LegendNANA
15:00 -1.0 -5.4 72 28 16   101.45   -6 LegendNANA
16:00 -1.5 -5.1 76 28 15   101.46   -6 LegendNANA
17:00 -1.5 -6.0 72 29 17   101.46   -7 LegendNANA
18:00 -1.5 -6.0 71 29 14   101.45   -6 LegendNANA
19:00 -1.8 -6.1 73 31 9   101.45   -5 LegendNANA
20:00 -2.6 -6.3 76 20 4   101.45   -4 LegendNANA
21:00 -3.0 -6.3 78   0   101.44     LegendNANA
22:00 -3.7 -6.7 80 8 1   101.39   -4 LegendNANA
23:00 -3.8 -6.4 82 8 3   101.36   -5 LegendNANA

Notes on Data Quality.

Legend

  • E = Estimated
  • M = Missing
  • NA = Not Available
  • ‡ = Partner data that is not subject to review by the National Climate Archives
Date modified: